This is the latest recevied weather packets stored in our database for station/object K0QJ. If no packets are shown the sender has not sent any weather packets the latest 10 day(s).
| Time | Temp. | Humidity | Pressure | Rain* | Wind** | Luminosity | Snow |
|---|---|---|---|---|---|---|---|
| 1778081283 | 12.78° C | 41% | 1017.6 hPa | 0 mm | - | 684 W/m² | - |
| 1778080980 | 12.78° C | 42% | 1017.5 hPa | 0 mm | - | 667 W/m² | - |
| 1778080679 | 12.78° C | 44% | 1017.6 hPa | 0 mm | - | 646 W/m² | - |
| 1778080375 | 12.22° C | 49% | 1017.6 hPa | 0 mm | - | 645 W/m² | - |
| 1778080072 | 12.22° C | 48% | 1017.4 hPa | 0 mm | - | 622 W/m² | - |
| 1778079769 | 12.78° C | 51% | 1017.8 hPa | 0 mm | - | 619 W/m² | - |
| 1778079466 | 12.22° C | 51% | 1017.6 hPa | 0 mm | - | 596 W/m² | - |
| 1778079162 | 11.67° C | 56% | 1017.5 hPa | 0 mm | - | 576 W/m² | - |
| 1778078860 | 11.67° C | 55% | 1017.6 hPa | 0 mm | - | 527 W/m² | - |
| 1778078557 | 11.67° C | 57% | 1017.6 hPa | 0 mm | - | 530 W/m² | - |
| 1778078254 | 11.11° C | 57% | 1017.6 hPa | 0 mm | - | 478 W/m² | - |
| 1778077952 | 11.67° C | 59% | 1017.7 hPa | 0 mm | - | 204 W/m² | - |
| 1778077650 | 11.11° C | 58% | 1017.9 hPa | 0 mm | - | 398 W/m² | - |
| 1778077348 | 11.11° C | 59% | 1017.7 hPa | 0 mm | - | 372 W/m² | - |
| 1778077046 | 10.56° C | 59% | 1017.9 hPa | 0 mm | - | 105 W/m² | - |
| 1778076744 | 10.56° C | 60% | 1017.6 hPa | 0 mm | - | 159 W/m² | - |
| 1778076441 | 10.56° C | 59% | 1017.5 hPa | 0 mm | - | 77 W/m² | - |
| 1778076138 | 10.56° C | 63% | 1017.5 hPa | 0 mm | - | 78 W/m² | - |
| 1778075834 | 10° C | 62% | 1017.3 hPa | 0 mm | - | 79 W/m² | - |
| 1778075531 | 10° C | 63% | 1017.3 hPa | 0 mm | - | 91 W/m² | - |
| 1778075228 | 10.56° C | 62% | 1017.2 hPa | 0 mm | - | 69 W/m² | - |
| 1778074924 | 10.56° C | 66% | 1017.1 hPa | 0 mm | - | 125 W/m² | - |
| 1778074621 | 10° C | 65% | 1017.3 hPa | 0 mm | - | 108 W/m² | - |
| 1778074317 | 10° C | 63% | 1017.1 hPa | 0 mm | - | 94 W/m² | - |
| 1778074015 | 10° C | 64% | 1017.2 hPa | 0 mm | - | 95 W/m² | - |
* Rain latest hour (hover to see other rain measurements)
** Current wind speed in m/s (hover to see current wind gust speed)